Location: Clifton Park
(41.4873°N, 81.8024°W)
Time: 19:42:35
(UTC+00:00)

ATLAS 3B R/B - Pass Details

Date: 21 January 2020
Orbit: 1027 x 1168 km, 63.8° (Epoch: 09 February)

Event Time Altitude Azimuth Distance (km) Brightness Sun altitude
Exits shadow 10:30:00 13° 345° (NNW) 2,651 4.6 -25.7°
Maximum altitude 10:34:59 29° 39° (NE) 1,861 4.2 -24.7°
Drops below altitude 10° 10:40:51 10° 98° (E) 2,932 6.1 -23.6°
Sets 10:43:58 0° 109° (ESE) 3,910 7.0 -23.1°
